Volver al catálogo

STARLINK-32316

ActivoComunicacionesVLEO
NORAD 61860·PAYLOAD·🇺🇸 United States

Lanzado Nov 7, 2024 desde Cape Canaveral Space Force Station

Loading…

Próximos Pases (próximas 24 horas)

TLE

ActualizadoSource: CelesTrak SupGP

Época: Sep 14, 2026, 21:23 UTC

1 61860C 24202R   26257.89145833  .00035735  00000+0  12948-2 0  2579
2 61860  43.0006 245.8129 0001324 262.0028 179.3985 15.27550073    15

Sigue STARLINK-32316 en tiempo real con AllMySat

Download on the App Store